Regional Weather Roundup
Issued by NWS

Home | Current Version | Previous Version | Graphics & Text | Print | Product List | Glossary On
Versions: 1 2 3 4 5 6 7 8 9 10 11 12 13 14 15 16 17 18 19 20 21 22 23 24 25 26 27 28 29 30 31 32 33 34 35 36 37 38 39 40 41 42 43 44 45 46 47 48 49 50
000
ASUS43 KDMX 272007
RWRIA

WEATHER ROUNDUP FOR IOWA
NATIONAL WEATHER SERVICE DES MOINES IA
300 PM CDT WED MAY 27 2015

NOTE: "FAIR" INDICATES FEW OR NO CLOUDS BELOW 12,000 FEET WITH NO
SIGNIFICANT WEATHER AND/OR OBSTRUCTIONS TO VISIBILITY.

* - THESE STATIONS ARE NOT NWS STATIONS...THUS NOT UNDER NWS
QUALITY CONTROL.  THEY ALSO DO NOT REPORT WEATHER SUCH
AS PRECIPITATION OR FOG.

IAZ001>003-012>014-020>022-031>034-043>046-272100-
   NORTHWEST IOWA

CITY           SKY/WX    TMP DP  RH WIND       PRES   REMARKS
CARROLL *      SUNNY     81  52  36 W8        30.05S HX  80
CHEROKEE *     SUNNY     81  55  41 NW5       30.03S HX  80
DENISON *      SUNNY     81  54  39 W8        30.03S HX  80
LE MARS *      SUNNY     82  50  32 SW5       30.03S HX  81
ORANGE CITY *  SUNNY     81  48  32 CALM      30.03S HX  80
SHELDON *      SUNNY     82  73  74 VRB5G12   30.01F HX  88
SIOUX CITY     SUNNY     83  51  33 S9        30.03S HX  81
SPENCER        SUNNY     83  54  36 W10       30.02S HX  82
STORM LAKE *   SUNNY     81  52  36 W10G17    30.05S HX  80
$$

IAZ055>058-069>071-079>083-090>094-272100-
   SOUTHWEST IOWA

CITY           SKY/WX    TMP DP  RH WIND       PRES   REMARKS
ATLANTIC *     SUNNY     81  54  39 W8G14     30.06S HX  80
AUDUBON *      SUNNY     81  52  36 SW3       30.07S HX  80
CLARINDA *     MOSUNNY   81  55  41 S9        30.09S HX  80
COUNCIL BLFS * SUNNY     82  52  34 W7        30.07S HX  81
CRESTON *      MOSUNNY   79  57  47 VRB7G14   30.08S HX  80
HARLAN  *      SUNNY     81  52  36 SW9G15    30.09S HX  80
LAMONI         SUNNY     81  56  42 W3        30.09S HX  81
RED OAK *      SUNNY     82  50  32 CALM      30.07S HX  81
SHENANDOAH *   SUNNY     82  52  34 VRB7G14   30.08S HX  81
$$

IAZ047>049-059>061-072>074-084-272100-
   CENTRAL IOWA

CITY           SKY/WX    TMP DP  RH WIND       PRES   REMARKS
AMES           SUNNY     80  57  45 W12       30.05S HX  80
ANKENY *       SUNNY     81  57  44 W10       30.05S HX  81
CHARITON *     SUNNY     79  55  44 VRB5      30.08S
DES MOINES     MOSUNNY   81  54  39 SW12G17   30.06R HX  81
GRINNELL*      SUNNY     77  55  47 W5        30.07R
KNOXVILLE *    SUNNY     79  54  41 SW5G13    30.06S
MARSHALLTOWN   SUNNY     78  57  48 W10       30.04S
PELLA *        SUNNY     79  61  53 W7        30.08S HX  80
PERRY *          N/A     81  57  44 W7        30.05S HX  81
$$

IAZ004>006-015-016-023>025-035-036-272100-
   NORTH CENTRAL IOWA

CITY           SKY/WX    TMP DP  RH WIND       PRES   REMARKS
ALGONA *       SUNNY     81 -29   1 W8G15     30.03S
CLARION *      SUNNY     81 -33   1 W7G16     30.03F
ESTHERVILLE    SUNNY     81  52  36 NW12      30.01S HX  80
MASON CITY     SUNNY     80  60  50 SW14      30.03S HX  81
FOREST CITY *  SUNNY     77  55  47 W9        30.02S
IOWA FALLS *     N/A     79  57  47 W13G18    30.05F HX  80
$$

IAZ007>011-017>019-026>030-037>042-050>054-066-272100-
   NORTHEAST IOWA

CITY           SKY/WX    TMP DP  RH WIND       PRES   REMARKS
CEDAR RAPIDS   MOSUNNY   77  59  53 VRB7      30.04S
CHARLES CITY * SUNNY     79  57  47 SW15      30.03S HX  80
CLINTON *      SUNNY     75  57  53 N8G16     30.06S
DECORAH *      MOSUNNY   75  59  57 VRB6G21   30.02S
DUBUQUE        PTSUNNY   73  59  61 W7        30.05R
MONTICELLO *   MOSUNNY   75  61  60 NW12      30.04S
OELWEIN *      MOSUNNY   77  59  53 W10G17    30.04F
WATERLOO         N/A     79  59  50 SW7       30.02S HX  80
$$

IAZ064-065-067-068-078-272100-
   EAST CENTRAL IOWA

CITY           SKY/WX    TMP DP  RH WIND       PRES   REMARKS
DAVENPORT      SUNNY     77  57  50 NW9       30.05R
IOWA CITY      SUNNY     77  55  46 NW5       30.06R
MT. PLEASANT * MOSUNNY   77  57  50 W7        30.07S
MUSCATINE *    SUNNY     79  55  44 VRB5G13   30.05R
QUAD CITIES    SUNNY     79  56  45 NW10      30.03R HX  80
$$

IAZ062-063-075>077-085>089-095>099-272100-
   SOUTHEAST IOWA

CITY           SKY/WX    TMP DP  RH WIND       PRES   REMARKS
BURLINGTON     MOSUNNY   77  59  53 VRB5      30.06R
FAIRFIELD *    SUNNY     77  57  50 VRB6      30.07S
FORT MADISON * MOSUNNY   75  59  57 W7        30.08S
KEOKUK *       MOSUNNY   77  61  57 W8        30.07R
OSKALOOSA *      N/A     79  52  38 CALM      30.07S
CENTERVILLE *  SUNNY     77  77 100 W5        30.10S
OTTUMWA        SUNNY     78  56  46 W7        30.07R
WASHINGTON *   SUNNY     79  55  44 W7        30.07S
$$

ABBREVIATIONS USED IN REMARKS
   TC - TEMPERATURES IN CELSIUS
  WCI - WIND CHILL INDEX
   HX - HEAT INDEX
  VSB - VISIBILITY
$$



USA.gov is the U.S. government's official web portal to all federal, state and local government web resources and services.